Regional Weather Roundup
Issued by NWS Upton, NY

Current Version | Previous Version | Graphics & Text | Print | Product List | Glossary Off
Versions: 1 2 3 4 5 6 7 8 9 10 11 12 13 14 15 16 17 18 19 20 21 22 23 24 25 26 27 28 29 30 31 32 33 34 35 36 37 38 39 40 41 42 43 44 45 46 47 48 49 50

000
ASUS41 KOKX 230805
RWROKX

REGIONAL WEATHER ROUNDUP
NATIONAL WEATHER SERVICE NEW YORK NY
400 AM EDT WED JUL 23 2014

NOTE: "FAIR" INDICATES FEW OR NO CLOUDS BELOW 12,000 FEET WITH NO
SIGNIFICANT WEATHER AND/OR OBSTRUCTIONS TO VISIBILITY.

NYZ071-072-176-178-NJZ106-104-230900-
NEW YORK CITY METRO AREA


CITY           SKY/WX    TMP DP  RH WIND       PRES   REMARKS
CENTRAL PARK   CLEAR     74  62  66 W7G18     30.03F
LAGUARDIA APRT PTCLDY    75  62  64 SW7       29.99F
KENNEDY INTL   CLEAR     72  62  71 SW8       30.01F
NEWARK/LIBERTY PTCLDY    72  63  73 S6        30.00F
BRNX BOT. GARD   N/A     73  63  68 SW2       30.00F
TETERBORO      CLEAR     74  63  68 S5        29.98F
$$

NYZ177-179-078>081-230900-
LONG ISLAND NEW YORK

CITY           SKY/WX    TMP DP  RH WIND       PRES   REMARKS
FARMINGDALE    CLEAR     70  63  78 SW6       30.01F
ISLIP          CLEAR     72  65  78 SW6       29.99F
SHIRLEY        CLEAR     71  68  90 SW7       30.01F
WESTHAMPTON    MOCLDY    71  68  90 SW9       30.02F
MONTAUK POINT    N/A     72  67  84 SW8G18    30.01F
$$

NYZ052-065-067-230900-
HUDSON VALLEY

CITY           SKY/WX    TMP DP  RH WIND       PRES   REMARKS
WHITE PLAINS   CLEAR     72  64  76 CALM      30.00F
NEWBURGH       PTCLDY    72  68  88 SW6       30.02
MONTGOMERY     CLEAR     69  67  93 CALM      29.98F
POUGHKEEPSIE   CLEAR     74  68  81 S5        29.96F
ALBANY         PTCLDY    75  68  78 S6        29.92F
$$

NJZ001-105-106-008-010-013-015-019>022-104-230900-
NEW JERSEY

CITY           SKY/WX    TMP DP  RH WIND       PRES   REMARKS
NEWARK/LIBERTY PTCLDY    72  63  73 S6        30.00F
TETERBORO      CLEAR     74  63  68 S5        29.98F
CALDWELL       CLEAR     72  63  73 CALM      30.00F
MORRISTOWN     PTCLDY    72  64  78 CALM      30.00F
SOMERVILLE     CLEAR     66  64  93 CALM      29.99F
LINDEN         FAIR      73  63  69 CALM      30.02F
SUSSEX         PTCLDY    70  67  90 CALM      30.00F
ANDOVER          N/A     70  66  87 S3        30.01F
TRENTON        CLEAR     69  62  78 S3        30.01F
MILLVILLE      CLEAR     69  67  93 CALM      30.03F
ATLANTIC CITY  PTCLDY    69  66  90 S5        30.03F
WRIGHTSTOWN    PTCLDY    67  67  99 S3        30.01S
TOMS RIVER     MOCLDY    70  66  88 SW6       30.04R
BELMAR         MOCLDY    68  63  83 W3        30.02F
$$

PAZ047>061-062-071-230900-
EASTERN PENNSYLVANIA

CITY           SKY/WX    TMP DP  RH WIND       PRES   REMARKS
PHILADELPHIA   PTCLDY    73  64  73 S8        30.02F
ALLENTOWN      CLEAR     70  66  87 CALM      30.01F
SCRANTON       PTCLDY    72  66  81 SW3       30.00F
$$

CTZ002-004>006-009-010-012-RIZ004-006-007-MAZ004-011-015-230900-
SOUTHERN NEW ENGLAND
 IN CT

CITY           SKY/WX    TMP DP  RH WIND       PRES   REMARKS
BRADLEY INTL   CLEAR     71  64  78 S8        29.95F
HARTFORD       CLEAR     71  64  78 S8        29.96F
DANBURY        CLEAR     72  63  73 W5        30.01F
WTRBRY/OXFORD  CLEAR     68  63  83 SW5       30.02F
BRIDGEPORT     CLEAR     73  65  75 SW8       29.99F
MERIDEN        CLEAR     70  64  81 S3        29.98F
NEW HAVEN      CLEAR     74  66  76 SW3       29.99F
CHESTER        FAIR      70  64  83 SW3       30.01S
GROTON         CLEAR     70  65  84 W6        29.99F
WILLIMANTIC    CLEAR     69  63  81 CALM      29.99F

 IN RI

CITY           SKY/WX    TMP DP  RH WIND       PRES   REMARKS
PROVIDENCE     CLEAR     71  62  73 S3        29.99S
BLOCK ISLAND   MOCLDY    68  64  88 SW14      30.01S
WESTERLY       CLEAR     71  64  78 SW3       30.00F

 IN MA

CITY           SKY/WX    TMP DP  RH WIND       PRES   REMARKS
BOSTON         PTCLDY    72  65  78 SW13      29.94F
WORCESTER      CLEAR     67  64  90 SW10      29.99F
WESTFIELD      CLEAR     70  65  84 S6        29.95F
PROVINCETOWN   CLEAR     68  63  83 SW10      29.96F
NANTUCKET      CLEAR     67  65  93 SW10      30.01F
$$

ANZ330-335-338-340-345-350-353-355-230900-
COASTAL MARINE OBSERVATIONS


STATION/POSITION TIME  SKY/WX   TEMP    WIND        PRES    VSBY  WAVE
                                AIR SEA DIR/SP/G                  HT/PER
                 (UTC)          (F)     (DEG/KT/KT) (MB)    (MI)  (FT/S)
NY HARB ENTRANCE NOT AVBL
4S FIRE IS       NOT AVBL
23SW MTP         0800            70 70              1015.9          3/ 5
HUDSON CANYON    0800            72 73  230/ 10/ 12 1017.1          2/ 7
EXECUTION ROCKS  0800            73 71  230/  6/  8   N/A
WESTERN LI SOUND 0800            74     220/  6/  8   N/A           0
CENTRAL LI SOUND 0700            73 72  210/ 14/ 16   N/A           2/ 3
EASTERN LI SOUND 0700            69 66  240/  6/  8   N/A
ROBBINS REEF     0800            73     240/  7/  8   N/A
$$


>>>>>>>>>>>>>>>>>>>>>>>>>>>> KEY <<<<<<<<<<<<<<<<<<<<<<<<<<<
>                                                          <
>     SKY/WX - SKY CONDITION/PRESENT WEATHER               <
>     TMP    - TEMPERATURE IN FAHRENHEIT                   <
>     DP     - DEWPOINT IN FAHRENHEIT                      <
>     RH     - RELATIVE HUMIDITY IN PERCENT                <
>     WIND   - DIRECTION AND SPEED IN MPH                  <
>     PRES   - MEAN SEA LEVEL PRESSURE IN INCHES OF HG     <
>     WCI    - WIND CHILL INDEX                            <
>     VSB    - VISIBILITY IN MILES                         <
>     HX     - HEAT INDEX                                  <
>     TC     - TEMPERATURE IN CELSIUS                      <
>     VRB    - VARIABLE WIND DIRECTION                     <
>                                                          <
>>>>>>>>>>>>>>>>>>>>>>>>>>>> KEY <<<<<<<<<<<<<<<<<<<<<<<<<<<




USA.gov is the U.S. government's official web portal to all federal, state and local government web resources and services.